Weather History for Yellowstone, WY

Change the Weather History Date:

Thursday, March 14, 2013

  Actual Average Record
Temperature  
Mean Temperature 36 °F 23 °F  
Max Temperature 51 °F 36 °F 51 °F (2013)
Min Temperature 21 °F 9 °F -8 °F (2005)
Degree Days  
Heating Degree Days 29 42  
Month to date heating degree days 616 623  
Since 1 July heating degree days 8483 8560  
Cooling Degree Days 0 0  
Month to date cooling degree days 0 0  
Year to date cooling degree days 0 0  
Moisture  
Dew Point 23 °F    
Average Humidity 60    
Maximum Humidity 92    
Minimum Humidity 28    
Precipitation  
Precipitation 0.00 in 0.03 in 0.43 in (2012)
Month to date precipitation 0.72 0.41  
Year to date precipitation 3.06 3.93  
Sea Level Pressure  
Sea Level Pressure 30.30 in    
Wind  
Wind Speed 2 mph (West)    
Max Wind Speed 14 mph    
Max Gust Speed 23 mph    
T = Trace of Precipitation, MM = Missing Value Source: NWS Daily Summary

Daily Weather History Graph

Daily Weather History Graph

Search for Another Location

Airport:

Trip Planner

Search our weather history database for the weather conditions in past years. The results will help you decide how hot, cold, wet, or windy it might be!

Date:

Astronomy

Mar. 14, 2013 Rise Set
Actual Time 7:35 AM MDT 7:26 PM MDT
Civil Twilight 7:06 AM MDT 7:55 PM MDT
Nautical Twilight 6:32 AM MDT 8:29 PM MDT
Astronomical Twilight 5:58 AM MDT 9:04 PM MDT
Moon 8:42 AM MDT (3/14) 10:56 PM MDT (3/14)
Length of Visible Light 12h 49m
Length of Day
11h 51m
Waxing Crescent, 9% of the Moon is Illuminated
Mar 14
Waxing Crescent
Mar 19
First Quarter
Mar 27
Full
Apr 2
Last Quarter
Apr 10
New

Hourly Weather History & Observations

Time (MDT) Temp. Windchill Dew Point Humidity Pressure Visibility Wind Dir Wind Speed Gust Speed Precip Events Conditions
12:56 AM 30.0 °F - 26.1 °F 85% 30.32 in - Calm Calm - N/A   Unknown
1:56 AM 27.0 °F - 24.1 °F 89% 30.31 in - Calm Calm - N/A   Unknown
2:56 AM 26.1 °F - 21.9 °F 84% 30.32 in - Calm Calm - N/A   Unknown
3:56 AM 25.0 °F - 21.9 °F 88% 30.33 in - Calm Calm - N/A   Unknown
4:56 AM 23.0 °F - 19.9 °F 88% 30.35 in - Calm Calm - N/A   Unknown
5:56 AM 21.9 °F - 19.9 °F 92% 30.37 in - Calm Calm - N/A   Unknown
6:56 AM 21.0 °F - 19.0 °F 92% 30.40 in - Calm Calm - N/A   Unknown
7:56 AM 21.9 °F - 19.0 °F 89% 30.42 in - Calm Calm - N/A   Unknown
8:56 AM 27.0 °F - 25.0 °F 92% 30.39 in - Calm Calm - N/A   Unknown
9:56 AM 34.0 °F - 26.1 °F 73% 30.37 in - Calm Calm - N/A   Unknown
10:56 AM 37.9 °F 35.5 °F 25.0 °F 60% 30.32 in - Variable 3.5 mph - N/A   Unknown
11:56 AM 39.0 °F 35.7 °F 25.0 °F 57% 30.31 in - Variable 4.6 mph - N/A   Unknown
12:56 PM 48.9 °F - 21.0 °F 33% 30.24 in - WSW 9.2 mph - N/A   Unknown
1:56 PM 48.0 °F - 19.9 °F 33% 30.25 in - Variable 4.6 mph - N/A   Unknown
2:56 PM 51.1 °F - 19.9 °F 29% 30.22 in - Variable 5.8 mph - N/A   Unknown
3:56 PM 48.9 °F - 19.0 °F 31% 30.25 in - Variable 5.8 mph - N/A   Unknown
4:56 PM 46.9 °F - 21.0 °F 36% 30.26 in - Variable 5.8 mph - N/A   Unknown
5:56 PM 46.0 °F 44.8 °F 19.9 °F 35% 30.28 in - Variable 3.5 mph - N/A   Unknown
6:56 PM 43.0 °F 41.3 °F 21.9 °F 43% 30.27 in - Variable 3.5 mph - N/A   Unknown
7:56 PM 37.9 °F 34.4 °F 24.1 °F 57% 30.28 in - West 4.6 mph - N/A   Unknown
8:56 PM 34.0 °F - 25.0 °F 70% 30.25 in - Calm Calm - N/A   Unknown
9:56 PM 32.0 °F - 26.1 °F 79% 30.22 in - Calm Calm - N/A   Unknown
10:56 PM 30.9 °F - 26.1 °F 82% 30.19 in - Calm Calm - N/A   Unknown
11:56 PM 28.9 °F - 24.1 °F 82% 30.19 in - Calm Calm - N/A   Unknown